Simultaneous Nadir Overpasses (SNOs) Predictions

Prediction of SNOs between METOP-B and NOAA-19 Satellite Orbit:

Table of predicted SNOs for the next 14.0 days since TLE Epoch: 9/25/2015
Index Date (METOP-B) Time (METOP-B) Lat,Lon (METOP-B) SZA (METOP-B ) Date (NOAA-19) Time (NOAA-19) Lat,Lon (NOAA-19) SZA (NOAA-19 ) Distance(km) Time Diff (sec)
1 10/05/2015 07:16:23 75.81, 70.75 80.39 10/05/2015 07:15:17 75.80, 67.52 80.36 88.01 66
2 10/05/2015 08:07:16 -75.27,-123.59 100.16 10/05/2015 08:06:03 -75.29,-123.53 100.14 2.33 73
3 10/05/2015 08:57:56 75.27, 43.73 79.86 10/05/2015 08:57:08 75.27, 43.73 79.86 0.51 48
4 10/05/2015 09:48:38 -75.25,-148.99 100.15 10/05/2015 09:48:05 -75.27,-148.97 100.14 1.58 33
5 10/05/2015 10:39:18 75.25, 18.33 79.87 10/05/2015 10:39:10 75.25, 18.29 79.87 1.07 8
6 10/05/2015 11:30:00 -75.23,-174.40 100.14 10/05/2015 11:30:07 -75.24,-174.42 100.13 1.47 7
7 10/05/2015 12:20:40 75.23, -7.07 79.87 10/05/2015 12:21:12 75.23, -7.14 79.87 2.11 32
8 10/05/2015 13:11:22 -75.21, 160.20 100.14 10/05/2015 13:12:09 -75.22, 160.14 100.13 2.12 47
9 10/05/2015 14:02:02 75.21, -32.47 79.88 10/05/2015 14:03:14 75.21, -32.58 79.88 3.21 72
10 10/05/2015 14:52:54 -74.71, 133.45 100.61 10/05/2015 14:54:01 -74.73, 136.10 100.58 77.54 67




NCC Satellite Simultaneous Nadir Overpasses (SNOs) Prediction Service
